Regional Weather Roundup
Issued by NWS Raleigh/Durham, NC

Home | Current Version | Previous Version | Text Only | Print | Product List | Glossary On
Versions: 1 2 3 4 5 6 7 8 9 10 11 12 13 14 15 16 17 18 19 20 21 22 23 24 25 26 27
000
ASUS42 KRAH 231710
RWRRAH
NORTH CAROLINA WEATHER ROUNDUP
NATIONAL WEATHER SERVICE RALEIGH NC
100 PM EDT THU OCT 23 2014

NOTE: "FAIR" INDICATES FEW OR NO CLOUDS BELOW 12,000 FEET WITH NO
SIGNIFICANT WEATHER AND/OR OBSTRUCTIONS TO VISIBILITY.

NCZ001-053-055-056-065-067-231800-
WESTERN NORTH CAROLINA

CITY           SKY/WX    TMP DP  RH WIND       PRES   REMARKS
ASHEVILLE      SUNNY     59  36  42 N20G26    30.11F
JEFFERSON      SUNNY     50  33  51 NW6G17    30.10F
MORGANTON      SUNNY     65  34  31 N5        30.11F
HICKORY        SUNNY     65  37  35 VRB6      30.06F
RUTHERFORDTON  SUNNY     66  40  37 N7        30.06F
MOUNT AIRY     SUNNY     62  41  46 N7G16     30.08F
BOONE          SUNNY     50  34  53 W18G30    30.11F
$$

NCZ021-022-025-041-071-084-088-231800-
CENTRAL NORTH CAROLINA

CITY           SKY/WX    TMP DP  RH WIND       PRES   REMARKS
CHARLOTTE      SUNNY     65  37  35 N14       30.07F
GREENSBORO     SUNNY     64  41  42 NW10G17   30.03F
WINSTON-SALEM  SUNNY     64  38  38 NW9       30.05F
RALEIGH-DURHAM SUNNY     64  42  44 NW7       30.00F
FORT BRAGG     SUNNY     65  43  45 NW12      30.00F
FAYETTEVILLE   SUNNY     65  42  43 NW9       30.01F
BURLINGTON     SUNNY     65  40  39 N9G18     30.02F
LAURINBURG     SUNNY     65  42  43 VRB7      30.03F
$$

NCZ011-015-027-028-043-044-047-080-103-231800-
NORTHEASTERN NORTH CAROLINA

CITY           SKY/WX    TMP DP  RH WIND       PRES   REMARKS
ROCKY MT-WILSO SUNNY     66  43  43 NW10      29.95F
GREENVILLE     SUNNY     64  45  48 NW9G17    29.96F
WASHINGTON     SUNNY     63  45  51 NW9G17    29.93F
ELIZABETH CITY SUNNY     65  46  50 W14G25    29.87F
MANTEO         SUNNY     61  46  59 NW16      29.88F
CAPE HATTERAS  SUNNY     61  47  59 NW12G23   29.90F
$$

NCZ078-087-090-091-093-098-101-231800-
SOUTHEASTERN NORTH CAROLINA

CITY           SKY/WX    TMP DP  RH WIND       PRES   REMARKS
LUMBERTON      SUNNY     65  42  43 N5G17     30.01F
GOLDSBORO      SUNNY     65  48  52 W5        29.95F
KINSTON        SUNNY     66  43  42 NW8       29.96F
KENANSVILLE    SUNNY     63  43  48 W8        29.99F
NEW BERN       SUNNY     67  45  45 W10       29.95F
CHERRY POINT   SUNNY     67  45  45 NW13      29.94F
BEAUFORT       SUNNY     66  47  50 W13       29.93F
JACKSONVILLE   SUNNY     65  44  46 NW12      29.96F
WILMINGTON     SUNNY     66  44  45 NW13      29.98F
$$




USA.gov is the U.S. government's official web portal to all federal, state and local government web resources and services.